| time (UTC) | temp F | wind direction | speed knots | gust knots | rain 1hr in | rain 24hr in | rain mn in | humidity % | barometer mb |
| 20260905214557 | 89 | 157 | 3.5 | 7.8 | 0.00 | 0.00 | 0.00 | 24 | 1012.6 |
| 20260905213047 | 89 | 167 | 1.7 | 6.1 | 0.00 | 0.00 | 0.00 | 27 | 1012.7 |
| 20260905211554 | 89 | 170 | 2.6 | 7.8 | 0.00 | 0.00 | 0.00 | 27 | 1012.7 |
| 20260905210052 | 88 | 179 | 1.7 | 7.8 | 0.00 | 0.00 | 0.00 | 29 | 1012.9 |
| 20260905204545 | 88 | 156 | 1.7 | 6.1 | 0.00 | 0.00 | 0.00 | 30 | 1012.9 |
| 20260905203045 | 87 | 0 | 1.7 | 6.1 | 0.00 | 0.00 | 0.00 | 33 | 1013.0 |
| 20260905201554 | 87 | 160 | 1.7 | 7.0 | 0.00 | 0.00 | 0.00 | 33 | 1013.2 |
| 20260905200054 | 87 | 233 | 1.7 | 9.6 | 0.00 | 0.00 | 0.00 | 35 | 1013.3 |
| 20260905194546 | 87 | 170 | 3.5 | 7.8 | 0.00 | 0.00 | 0.00 | 39 | 1013.5 |
| 20260905193054 | 87 | 158 | 1.7 | 7.0 | 0.00 | 0.00 | 0.00 | 46 | 1013.4 |
| 20260905191556 | 87 | 162 | 0.9 | 5.2 | 0.00 | 0.00 | 0.00 | 42 | 1013.7 |
| 20260905190051 | 87 | 226 | 0.9 | 4.3 | 0.00 | 0.00 | 0.00 | 36 | 1013.9 |
| 20260905184603 | 85 | 0 | 0.0 | 4.3 | 0.00 | 0.00 | 0.00 | 39 | 1014.1 |
| 20260905183046 | 84 | 180 | 1.7 | 5.2 | 0.00 | 0.00 | 0.00 | 42 | 1014.2 |
| 20260905181552 | 83 | 103 | 0.9 | 3.5 | 0.00 | 0.00 | 0.00 | 47 | 1014.1 |
| 20260905180051 | 81 | 211 | 0.0 | 3.5 | 0.00 | 0.00 | 0.00 | 54 | 1014.2 |
| 20260905174550 | 80 | 0 | 0.0 | 5.2 | 0.00 | 0.00 | 0.00 | 59 | 1014.2 |
| 20260905173045 | 79 | 193 | 0.9 | 2.6 | 0.00 | 0.00 | 0.00 | 62 | 1014.2 |
| 20260905171553 | 78 | 0 | 0.9 | 3.5 | 0.00 | 0.00 | 0.00 | 67 | 1014.1 |
| 20260905170050 | 76 | 201 | 0.0 | 3.5 | 0.00 | 0.00 | 0.00 | 71 | 1014.4 |
| 20260905164548 | 74 | 135 | 0.9 | 2.6 | 0.00 | 0.00 | 0.00 | 78 | 1014.4 |
| 20260905163051 | 72 | 329 | 0.0 | 2.6 | 0.00 | 0.00 | 0.00 | 83 | 1014.3 |
| 20260905161554 | 71 | 59 | 0.9 | 2.6 | 0.00 | 0.00 | 0.00 | 86 | 1014.2 |
| 20260905160055 | 69 | 0 | 0.0 | 2.6 | 0.00 | 0.00 | 0.00 | 87 | 1014.3 |
| 20260905154550 | 68 | 0 | 0.0 | 1.7 | 0.00 | 0.00 | 0.00 | 88 | 1014.1 |
| 20260905153045 | 67 | 0 | 0.0 | 2.6 | 0.00 | 0.00 | 0.00 | 89 | 1014.1 |
| 20260905151552 | 66 | 0 | 0.0 | 0.9 | 0.00 | 0.00 | 0.00 | 89 | 1014.1 |
| 20260905150048 | 64 | 0 | 0.0 | 1.7 | 0.00 | 0.00 | 0.00 | 89 | 1013.9 |
| 20260905144551 | 63 | 0 | 0.0 | 1.7 | 0.00 | 0.00 | 0.00 | 88 | 1013.9 |
| 20260905143047 | 62 | 0 | 0.0 | 1.7 | 0.00 | 0.00 | 0.00 | 89 | 1013.8 |
| 20260905141609 | 60 | 0 | 0.0 | 0.0 | 0.00 | 0.00 | 0.00 | 88 | 1013.6 |
| 20260905140058 | 60 | 0 | 0.0 | 0.0 | 0.00 | 0.00 | 0.00 | 88 | 1013.4 |
| 20260905134602 | 60 | 0 | 0.0 | 0.0 | 0.00 | 0.00 | 0.00 | 87 | 1013.2 |
| 20260905133054 | 60 | 0 | 0.0 | 0.0 | 0.00 | 0.00 | 0.00 | 88 | 1013.1 |
| 20260905131558 | 60 | 0 | 0.0 | 0.0 | 0.00 | 0.00 | 0.00 | 87 | 1013.0 |
| 20260905130052 | 61 | 0 | 0.0 | 0.0 | 0.00 | 0.00 | 0.00 | 87 | 1012.8 |
| 20260905124558 | 61 | 0 | 0.0 | 0.0 | 0.00 | 0.00 | 0.00 | 87 | 1012.7 |
| 20260905123058 | 61 | 0 | 0.0 | 0.0 | 0.00 | 0.00 | 0.00 | 87 | 1012.8 |
| 20260905121549 | 62 | 0 | 0.0 | 0.0 | 0.00 | 0.00 | 0.00 | 87 | 1012.9 |
| 20260905120059 | 62 | 0 | 0.0 | 0.0 | 0.00 | 0.00 | 0.00 | 87 | 1012.8 |
| 20260905114626 | 62 | 0 | 0.0 | 0.0 | 0.00 | 0.00 | 0.00 | 87 | 1012.8 |
| 20260905113050 | 62 | 0 | 0.0 | 0.0 | 0.00 | 0.00 | 0.00 | 86 | 1012.9 |
| 20260905111553 | 63 | 0 | 0.0 | 0.0 | 0.00 | 0.00 | 0.00 | 86 | 1013.0 |
| 20260905110044 | 63 | 0 | 0.0 | 0.0 | 0.00 | 0.00 | 0.00 | 86 | 1013.1 |
| 20260905104556 | 63 | 0 | 0.0 | 0.0 | 0.00 | 0.00 | 0.00 | 86 | 1013.1 |
| 20260905103052 | 63 | 0 | 0.0 | 0.0 | 0.00 | 0.00 | 0.00 | 86 | 1013.2 |
| 20260905101547 | 64 | 0 | 0.0 | 0.0 | 0.00 | 0.00 | 0.00 | 86 | 1013.2 |
| 20260905100114 | 64 | 0 | 0.0 | 0.0 | 0.00 | 0.00 | 0.00 | 86 | 1013.3 |
| 20260905094552 | 64 | 0 | 0.0 | 0.0 | 0.00 | 0.00 | 0.00 | 86 | 1013.3 |
| 20260905093054 | 64 | 0 | 0.0 | 0.0 | 0.00 | 0.00 | 0.00 | 85 | 1013.2 |
| 20260905091558 | 64 | 0 | 0.0 | 0.0 | 0.00 | 0.00 | 0.00 | 85 | 1013.3 |
| 20260905090044 | 64 | 0 | 0.0 | 0.0 | 0.00 | 0.00 | 0.00 | 85 | 1013.2 |
| 20260905084556 | 65 | 0 | 0.0 | 0.0 | 0.00 | 0.00 | 0.00 | 85 | 1013.2 |
| 20260905083050 | 65 | 0 | 0.0 | 0.0 | 0.00 | 0.00 | 0.00 | 84 | 1013.3 |
| 20260905081547 | 65 | 0 | 0.0 | 0.0 | 0.00 | 0.00 | 0.00 | 84 | 1013.4 |
| 20260905080046 | 65 | 0 | 0.0 | 0.0 | 0.00 | 0.00 | 0.00 | 84 | 1013.6 |
| 20260905074600 | 66 | 0 | 0.0 | 0.9 | 0.00 | 0.00 | 0.00 | 84 | 1013.5 |
| 20260905073102 | 66 | 0 | 0.0 | 0.0 | 0.00 | 0.00 | 0.00 | 83 | 1013.5 |
| 20260905071548 | 66 | 0 | 0.0 | 0.0 | 0.00 | 0.00 | 0.00 | 83 | 1013.5 |
| 20260905070047 | 67 | 0 | 0.0 | 0.0 | 0.00 | 0.00 | 0.00 | 83 | 1013.5 |
| 20260905064609 | 67 | 0 | 0.0 | 0.0 | 0.00 | 0.00 | 0.00 | 82 | 1013.4 |
| 20260905063053 | 68 | 0 | 0.0 | 0.0 | 0.00 | 0.00 | 0.00 | 82 | 1013.5 |
| 20260905061601 | 68 | 0 | 0.0 | 0.0 | 0.00 | 0.00 | 0.00 | 82 | 1013.4 |
| 20260905054602 | 69 | 0 | 0.0 | 0.0 | 0.00 | 0.00 | 0.00 | 81 | 1013.4 |
| 20260905053048 | 69 | 0 | 0.0 | 0.0 | 0.00 | 0.00 | 0.00 | 80 | 1013.2 |
| 20260905051605 | 69 | 0 | 0.0 | 0.9 | 0.00 | 0.00 | 0.00 | 80 | 1013.2 |
| 20260905050056 | 69 | 0 | 0.0 | 0.0 | 0.00 | 0.00 | 0.00 | 79 | 1013.3 |
| 20260905044559 | 69 | 0 | 0.0 | 1.7 | 0.00 | 0.00 | 0.00 | 79 | 1013.2 |
| 20260905043049 | 70 | 0 | 0.0 | 0.9 | 0.00 | 0.00 | 0.00 | 78 | 1013.1 |
| 20260905041549 | 70 | 0 | 0.0 | 0.9 | 0.00 | 0.00 | 0.00 | 78 | 1013.0 |
| 20260905040058 | 71 | 0 | 0.0 | 0.9 | 0.00 | 0.00 | 0.00 | 77 | 1012.9 |
| 20260905034605 | 71 | 0 | 0.0 | 2.6 | 0.00 | 0.00 | 0.00 | 76 | 1012.7 |
| 20260905033102 | 71 | 248 | 0.0 | 3.5 | 0.00 | 0.00 | 0.00 | 76 | 1012.5 |
| 20260905031546 | 71 | 293 | 0.0 | 2.6 | 0.00 | 0.00 | 0.00 | 75 | 1012.4 |
| 20260905030054 | 72 | 0 | 0.0 | 2.6 | 0.00 | 0.00 | 0.00 | 74 | 1012.2 |
| 20260905024554 | 73 | 296 | 0.0 | 3.5 | 0.00 | 0.00 | 0.00 | 72 | 1012.0 |
| 20260905023123 | 73 | 0 | 0.0 | 2.6 | 0.00 | 0.00 | 0.00 | 71 | 1012.0 |
| 20260905021546 | 74 | 0 | 0.0 | 2.6 | 0.00 | 0.00 | 0.00 | 70 | 1012.0 |
| 20260905020045 | 74 | 0 | 0.9 | 2.6 | 0.00 | 0.00 | 0.00 | 69 | 1011.9 |
| 20260905014556 | 74 | 159 | 0.9 | 4.3 | 0.00 | 0.00 | 0.00 | 68 | 1012.0 |
| 20260905013049 | 75 | 159 | 1.7 | 4.3 | 0.00 | 0.00 | 0.00 | 67 | 1012.1 |
| 20260905011556 | 75 | 211 | 2.6 | 5.2 | 0.00 | 0.00 | 0.00 | 66 | 1012.1 |
| 20260905010047 | 75 | 183 | 1.7 | 6.1 | 0.00 | 0.00 | 0.00 | 63 | 1012.2 |
| 20260905004556 | 76 | 194 | 2.6 | 6.1 | 0.00 | 0.00 | 0.00 | 62 | 1012.3 |
| 20260905003050 | 77 | 159 | 2.6 | 6.1 | 0.00 | 0.00 | 0.00 | 60 | 1012.3 |
| 20260905001549 | 77 | 236 | 2.6 | 8.7 | 0.00 | 0.00 | 0.00 | 57 | 1012.3 |
| 20260905000113 | 78 | 232 | 2.6 | 7.8 | 0.00 | 0.00 | 0.00 | 60 | 1012.3 |
| 20260904234557 | 78 | 205 | 2.6 | 7.8 | 0.00 | 0.00 | 0.00 | 60 | 1012.7 |
| 20260904233050 | 78 | 186 | 2.6 | 7.8 | 0.00 | 0.00 | 0.00 | 58 | 1012.5 |
| 20260904231548 | 79 | 138 | 2.6 | 7.0 | 0.00 | 0.00 | 0.00 | 58 | 1012.3 |
| 20260904230058 | 78 | 0 | 2.6 | 7.8 | 0.00 | 0.00 | 0.00 | 59 | 1012.5 |
| 20260904224603 | 79 | 152 | 4.3 | 9.6 | 0.00 | 0.00 | 0.00 | 58 | 1012.8 |
| 20260904223054 | 79 | 190 | 2.6 | 7.0 | 0.00 | 0.00 | 0.00 | 58 | 1012.7 |
| 20260904221547 | 79 | 176 | 2.6 | 7.8 | 0.00 | 0.00 | 0.00 | 59 | 1012.8 |
| 20260904220108 | 79 | 203 | 2.6 | 9.6 | 0.00 | 0.00 | 0.00 | 59 | 1012.8 |